KANOPUS-V 1

Last updated on Tue Oct 15 2024 00:02:24 GMT+0000 (Coordinated Universal Time)

1 38707U 12039A 24288.30175013 .00218242 00000+0 13896-2 0 9991 2 38707 97.4951 233.0874 0007394 98.0082 262.2023 15.75772548679762
UTC large
Height (km)
Speed (km/s)
/
Latitude / Longitude
Inclination (degrees)
Orbital Period (minutes)
Azimuth
Elevation
Range (km)
Doppler Factor

Next 0 passes for location: London (51.5072 / 0.1276)

Sorry there are no passes over London.